Location: Eaton Estates
(41.3089°N, 82.0057°W)
Time: 20:09:40
(UTC+00:00)

Cosmos 2123 Rocket - Pass Details

Date: 24 October 2021
Orbit: 961 x 992 km, 82.9° (Epoch: 03 December)

Event Time Altitude Azimuth Distance (km) Brightness Sun altitude
Rises 00:28:13 0° 345° (NNW) 3,715 7.3 -22.0°
Reaches altitude 10° 00:30:54 10° 338° (NNW) 2,759 6.7 -22.5°
Maximum altitude 00:36:42 40° 272° (W) 1,426 5.4 -23.5°
Drops below altitude 10° 00:42:26 10° 205° (SSW) 2,727 6.5 -24.6°
Sets 00:45:05 0° 198° (SSW) 3,666 7.1 -25.1°
